Quillayute, WA

5:47 PM PDT on August 21, 2017 (GMT -0700)
Quillayute

Weather History for KUIL - January, 2012

Change the Weather History Date:

Tuesday, January 24, 2012

  Actual Average Record
Temperature  
Mean Temperature 46 °F 42 °F  
Max Temperature 52 °F 48 °F 66 °F (2014)
Min Temperature 40 °F 36 °F 19 °F (1969)
Degree Days  
Heating Degree Days 19 23  
Month to date heating degree days 564  
Since 1 July heating degree days 3042  
Cooling Degree Days 0 0  
Month to date cooling degree days 0  
Year to date cooling degree days 0  
Moisture  
Dew Point 44 °F    
Average Humidity 91    
Maximum Humidity 100    
Minimum Humidity 68    
Precipitation  
Precipitation 0.95 in 0.46 in 3.85 in (1984)
Month to date precipitation 11.58  
Year to date precipitation 11.58  
Sea Level Pressure  
Sea Level Pressure 29.68 in    
Wind  
Wind Speed 15 mph (South)    
Max Wind Speed 29 mph    
Max Gust Speed 43 mph    
Visibility 5 miles    
Events Rain    
T = Trace of Precipitation, MM = Missing Value Source: NWS Daily Summary

Daily Weather History Graph

Daily Weather History Graph

Search for Another Location

Airport or City:

Trip Planner

Search our weather history database for the weather conditions in past years. The results will help you decide how hot, cold, wet, or windy it might be!

Date:

Astronomy

Jan. 24, 2012 Rise Set
Actual Time 7:55 AM PST 5:05 PM PST
Civil Twilight 7:21 AM PST 5:39 PM PST
Nautical Twilight 6:43 AM PST 6:17 PM PST
Astronomical Twilight 6:06 AM PST 6:54 PM PST
Moon 8:17 AM PST (1/24) 7:15 PM PST (1/24)
Length of Visible Light 10h 18m
Length of Day
9h 09m
Waxing Crescent, 3% of the Moon is Illuminated
Jan 24
Waxing Crescent
Jan 30
First Quarter
Feb 7
Full
Feb 14
Last Quarter
Feb 21
New

Hourly Weather History & Observations

Time (PST) Temp. Windchill Dew Point Humidity Pressure Visibility Wind Dir Wind Speed Gust Speed Precip Events Conditions
12:53 AM 43.0 °F 37.7 °F 33.1 °F 68% 29.90 in 10.0 mi SE 9.2 mph 17.3 mph N/A   Overcast
1:53 AM 44.1 °F 37.4 °F 34.0 °F 68% 29.88 in 10.0 mi SSE 13.8 mph 21.9 mph 0.00 in Rain Light Rain
2:43 AM 42.8 °F 35.8 °F 35.6 °F 76% 29.87 in 9.0 mi SSE 13.8 mph 25.3 mph 0.00 in Rain Light Rain
2:53 AM 42.1 °F 36.1 °F 37.0 °F 82% 29.87 in 10.0 mi SSE 10.4 mph 23.0 mph 0.00 in Rain Light Rain
3:07 AM 42.8 °F 38.0 °F 37.4 °F 81% 29.88 in 10.0 mi SSE 8.1 mph 21.9 mph 0.00 in Rain Light Rain
3:51 AM 42.8 °F 36.2 °F 37.4 °F 81% 29.87 in 4.0 mi SSE 12.7 mph 29.9 mph 0.04 in Rain Light Rain
3:53 AM 42.1 °F 36.1 °F 37.9 °F 85% 29.88 in 4.0 mi South 10.4 mph 29.9 mph 0.04 in Rain Light Rain
4:00 AM - - - N/A% - - North - - N/A   Unknown
4:24 AM 41.0 °F 34.3 °F 39.2 °F 93% 29.85 in 5.0 mi SSE 11.5 mph 27.6 mph 0.04 in Rain Light Rain
4:43 AM 41.0 °F 33.5 °F 39.2 °F 93% 29.84 in 5.0 mi SSE 13.8 mph 26.5 mph 0.04 in Rain Light Rain
4:53 AM 41.0 °F 33.1 °F 39.0 °F 93% 29.83 in 5.0 mi SSE 15.0 mph 28.8 mph 0.04 in Rain Light Rain
5:53 AM 39.9 °F 31.4 °F 37.9 °F 93% 29.81 in 6.0 mi SE 16.1 mph 27.6 mph 0.10 in Rain Light Rain
6:53 AM 39.9 °F 32.1 °F 37.9 °F 93% 29.76 in 7.0 mi SSE 13.8 mph 27.6 mph 0.06 in Rain Light Rain
7:04 AM 39.2 °F 31.2 °F 37.4 °F 93% 29.75 in 9.0 mi SSE 13.8 mph 29.9 mph 0.01 in Rain Light Rain
7:32 AM 39.2 °F 30.8 °F 37.4 °F 93% 29.74 in 10.0 mi SSE 15.0 mph 29.9 mph 0.02 in Rain Light Rain
7:53 AM 41.0 °F 33.9 °F 37.9 °F 89% 29.70 in 10.0 mi SSE 12.7 mph 34.5 mph 0.02 in Rain Light Rain
8:53 AM 43.0 °F 36.0 °F 39.0 °F 86% 29.70 in 10.0 mi SSE 13.8 mph 35.7 mph 0.00 in   Overcast
9:53 AM 44.1 °F 37.1 °F 41.0 °F 89% 29.70 in 4.0 mi SSE 15.0 mph 32.2 mph 0.01 in Rain Light Rain
10:14 AM 44.6 °F 38.1 °F 42.8 °F 93% 29.68 in 7.0 mi South 13.8 mph 35.7 mph 0.01 in Rain Light Rain
10:21 AM 44.6 °F 38.4 °F 42.8 °F 93% 29.68 in 10.0 mi SSE 12.7 mph 34.5 mph 0.01 in Rain Light Rain
10:53 AM 45.0 °F 36.4 °F 41.0 °F 86% 29.65 in 10.0 mi South 23.0 mph 39.1 mph 0.01 in   Overcast
11:53 AM 46.0 °F 41.0 °F 43.0 °F 89% 29.62 in 5.0 mi SSE 10.4 mph 35.7 mph 0.00 in Rain Light Rain
12:53 PM 46.9 °F - 45.0 °F 93% 29.60 in 2.5 mi South 16.1 mph 32.2 mph 0.05 in Rain Light Rain
1:00 PM - - - N/A% - - North - - N/A   Unknown
1:02 PM 46.4 °F 41.5 °F 44.6 °F 93% 29.59 in 2.5 mi South 10.4 mph 27.6 mph 0.02 in Rain Light Rain
1:14 PM 46.4 °F 39.0 °F 46.4 °F 100% 29.55 in 1.2 mi SSE 19.6 mph 32.2 mph 0.07 in Rain Rain
1:23 PM 46.4 °F 40.4 °F 46.4 °F 100% 29.55 in 1.8 mi SSE 13.8 mph 38.0 mph 0.12 in Rain Rain
1:29 PM 46.4 °F 40.7 °F 46.4 °F 100% 29.56 in 3.0 mi South 12.7 mph 28.8 mph 0.13 in Rain Light Rain
1:53 PM 48.0 °F - 46.9 °F 96% 29.54 in 2.5 mi South 12.7 mph 33.4 mph 0.18 in Rain Rain
2:02 PM 48.2 °F - 46.4 °F 93% 29.53 in 1.8 mi SSE 15.0 mph 28.8 mph 0.04 in Rain Light Rain
2:20 PM 48.2 °F - 46.4 °F 93% 29.53 in 1.8 mi South 11.5 mph 27.6 mph 0.09 in Rain Rain
2:25 PM 48.2 °F - 48.2 °F 100% 29.52 in 2.0 mi South 11.5 mph 24.2 mph 0.10 in Rain Light Rain
2:38 PM 48.2 °F - 48.2 °F 100% 29.52 in 1.2 mi South 11.5 mph 28.8 mph 0.13 in Rain Rain
2:53 PM 48.9 °F - 48.0 °F 97% 29.52 in 1.2 mi South 16.1 mph 27.6 mph 0.16 in Rain Rain
3:06 PM 48.2 °F - 48.2 °F 100% 29.52 in 0.8 mi South 18.4 mph 33.4 mph 0.07 in Rain Rain
3:29 PM 50.0 °F - 48.2 °F 94% 29.52 in 1.0 mi South 16.1 mph 27.6 mph 0.15 in Rain Light Rain
3:48 PM 48.2 °F - 48.2 °F 100% 29.53 in 0.8 mi South 12.7 mph 25.3 mph 0.22 in Rain Rain
3:53 PM 48.9 °F - 48.9 °F 100% 29.54 in 1.0 mi SSW 13.8 mph 20.7 mph 0.23 in Rain Light Rain
4:06 PM 50.0 °F - 50.0 °F 100% 29.54 in 1.2 mi SSW 15.0 mph 25.3 mph 0.02 in Rain Light Rain
4:13 PM 51.8 °F - 51.8 °F 100% 29.54 in 1.8 mi SSW 18.4 mph 33.4 mph 0.02 in Rain Light Rain
4:23 PM 51.8 °F - 51.8 °F 100% 29.55 in 3.0 mi SW 24.2 mph 36.8 mph 0.03 in Rain Light Rain
4:43 PM 51.8 °F - 51.8 °F 100% 29.56 in 5.0 mi SSW 19.6 mph 26.5 mph 0.03 in Rain Light Rain
4:53 PM 51.1 °F - 51.1 °F 100% 29.57 in 7.0 mi SSW 16.1 mph 31.1 mph 0.03 in   Overcast
5:53 PM 51.1 °F - 50.0 °F 96% 29.61 in 5.0 mi SSW 13.8 mph 29.9 mph 0.01 in   Overcast
6:53 PM 51.1 °F - 48.9 °F 92% 29.64 in 5.0 mi SSW 16.1 mph 27.6 mph N/A   Overcast
7:04 PM 51.8 °F - 48.2 °F 88% 29.64 in 5.0 mi SSW 12.7 mph 21.9 mph N/A   Overcast
7:27 PM 50.0 °F - 48.2 °F 94% 29.64 in 3.0 mi SSW 12.7 mph 20.7 mph 0.00 in Rain Light Rain
7:53 PM 50.0 °F - 48.9 °F 96% 29.66 in 5.0 mi SSW 16.1 mph 26.5 mph 0.00 in   Overcast
8:05 PM 50.0 °F - 48.2 °F 94% 29.66 in 5.0 mi SSW 11.5 mph 28.8 mph N/A   Overcast
8:10 PM 50.0 °F - 48.2 °F 94% 29.66 in 4.0 mi SSW 12.7 mph 21.9 mph N/A   Overcast
8:32 PM 50.0 °F - 46.4 °F 87% 29.69 in 5.0 mi SW 24.2 mph 38.0 mph 0.00 in   Overcast
8:53 PM 48.9 °F - 44.1 °F 83% 29.72 in 5.0 mi WSW 21.9 mph 29.9 mph 0.00 in   Haze
9:46 PM 46.4 °F 37.9 °F 44.6 °F 93% 29.78 in 3.0 mi West 25.3 mph 34.5 mph 0.00 in Rain Light Rain
9:53 PM 46.0 °F 38.8 °F 43.0 °F 89% 29.78 in 4.0 mi WSW 18.4 mph 33.4 mph 0.01 in Rain Light Rain
10:00 PM 46.4 °F 40.7 °F 42.8 °F 87% 29.79 in 6.0 mi WSW 12.7 mph 26.5 mph 0.00 in   Haze
10:53 PM 46.9 °F - 39.9 °F 77% 29.85 in 7.0 mi WSW 13.8 mph 24.2 mph 0.00 in   Overcast
11:53 PM 45.0 °F 38.2 °F 39.9 °F 82% 29.91 in 8.0 mi WSW 15.0 mph 24.2 mph N/A   Overcast